Vertical_Velocity
1 2 3 1 -0 0 -0 -0 0 0 -2 -1 1 1 -0 0 1 -1 -4 -2 -1 -1 -0 1 1 1 0 1 1 1 1 -0 -0
-1 -0 0 2 1 1 0 1 1 -0 -1 0 -0 -3 -0 0 1 0 1 1 -2 -4 -2 -1 -1 -0 -0 -0 -0 -0 -0 -0 -1
-1 -1 -1 -2 1 1 1 -0 0 0 1 -0 -1 -0 -0 0 1 0 0 -2 -0 -1 -2 -3 -3 -2 -2 -1 -1 -0 0 0 0
0 1 1 0 0 1 0 -0 -0 -1 1 0 -0 0 -1 -1 1 0 -1 -3 -1 0 2 2 1 -0 -1 -2 -2 -2 -1 -1 -1
0 -0 -1 0 2 2 3 3 0 -0 0 -0 2 1 -0 1 -0 -0 0 -1 -2 -2 -3 -2 -2 -1 0 0 -0 -1 -1 -1 -1
2 -1 -0 -1 -2 -1 0 3 3 2 -1 -1 0 1 0 1 0 -0 -1 1 -0 -2 -2 -1 -2 -2 -2 -2 -1 0 -0 -1 -1
-2 1 -1 -2 -2 -2 -2 -1 0 -0 1 -2 -1 -1 1 -0 0 1 -3 -3 -2 -1 -0 -1 -1 -1 -1 -1 -3 -3 -1 0 1
-0 4 2 -1 -3 -2 -3 -1 -2 0 0 5 0 -1 -2 1 0 -1 -1 -0 -0 -1 -1 -1 0 -0 -0 -1 -1 0 -0 -2 -2
-1 -0 -1 0 -1 -2 2 -3 0 1 1 2 2 1 1 -1 -2 -3 -1 -0 0 0 -1 -1 -2 -0 -0 2 0 -3 -3 -1 1
4 2 -2 3 2 4 2 -0 -2 -3 -1 0 1 -1 1 1 0 0 -4 -1 -0 0 1 1 1 0 0 -2 -1 1 1 1 0
0 -0 -0 1 -4 1 5 6 4 -3 -1 -0 -0 -2 -1 1 2 -0 2 -1 -1 -0 -0 -1 0 1 2 2 2 3 0 0 0
0 -1 -1 -1 0 -1 -1 -1 3 2 2 -4 0 1 -1 0 3 -2 -1 -0 -1 1 1 1 1 2 0 1 2 1 1 3 1
-0 -2 -2 -2 -2 -3 -2 1 6 1 4 1 -3 1 2 2 1 5 2 1 -0 -4 -1 -1 -1 -1 -0 0 1 1 -0 -2 2
3 2 1 1 2 0 2 -0 -4 -1 -3 2 2 2 -2 1 4 3 3 2 6 3 -3 -4 3 3 -1 1 1 2 4 2 -2
3 2 2 2 3 2 3 1 -1 0 4 -1 -4 -2 0 3 5 -3 1 -13 8 5 2 -2 2 2 3 1 5 3 8 0 2
-1 -1 -2 -2 -1 -2 -1 0 2 -2 1 8 3 -4 -12 -3 -1 -2 -4 -7 -15 19 22 -1 3 0 1 3 -8 1 -33 6 1
0 -0 -1 -2 -1 -4 -3 -1 -2 -3 2 1 6 -1 -4 2 0 -2 -2 -12 15 -53 14 2 4 5 4 -3 -11 -5 1 -5 3
-1 0 1 1 2 -1 0 1 1 -0 1 0 9 3 -7 -1 5 5 6 3 3 7 9 8 3 4 4 3 3 -1 2 -0 -1
-2 -1 -1 -0 0 -2 -1 0 4 7 0 5 4 6 6 4 -7 12 -0 -2 0 2 2 4 4 -0 6 -2 -1 6 3 1 -2
2 1 1 0 2 1 2 -1 -3 2 -0 3 4 2 4 -5 9 -10 1 3 1 3 5 4 7 4 -4 6 0 -1 -2 -2 3
Height
1548 1548 1547 1547 1547 1547 1546 1546 1546 1546 1546 1546 1546 1546 1546 1546 1546 1546 1545 1545 1544 1543 1542 1542 1542 1541 1541 1541 1540 1539 1539 1538 1538
1547 1547 1547 1546 1546 1546 1546 1545 1545 1545 1545 1545 1546 1546 1546 1546 1546 1545 1545 1544 1543 1543 1542 1542 1541 1541 1541 1541 1540 1540 1539 1539 1538
1546 1546 1545 1545 1545 1545 1545 1544 1544 1544 1544 1544 1544 1545 1545 1545 1546 1544 1544 1543 1543 1542 1541 1541 1541 1541 1540 1540 1540 1540 1539 1539 1538
1544 1544 1543 1543 1544 1543 1543 1543 1543 1542 1543 1543 1543 1543 1543 1544 1545 1543 1542 1541 1541 1541 1540 1540 1540 1540 1539 1539 1539 1539 1538 1538 1538
1542 1542 1541 1541 1542 1541 1541 1541 1541 1541 1541 1541 1540 1540 1540 1541 1541 1540 1540 1540 1539 1539 1539 1538 1538 1538 1538 1538 1538 1538 1537 1537 1536
1539 1539 1538 1538 1538 1538 1538 1538 1538 1538 1538 1537 1537 1537 1537 1538 1538 1538 1537 1537 1537 1537 1537 1536 1536 1536 1536 1536 1536 1536 1535 1535 1535
1536 1535 1535 1535 1535 1534 1534 1534 1534 1534 1534 1534 1533 1533 1534 1535 1534 1533 1533 1534 1534 1534 1534 1534 1534 1534 1534 1534 1533 1533 1533 1533 1533
1532 1531 1531 1530 1530 1529 1530 1530 1529 1529 1529 1530 1530 1530 1531 1531 1529 1528 1529 1529 1530 1530 1531 1531 1531 1531 1531 1531 1531 1531 1531 1531 1530
1528 1527 1527 1526 1526 1525 1526 1526 1527 1527 1526 1525 1525 1526 1525 1525 1525 1524 1524 1525 1525 1526 1527 1527 1527 1528 1528 1528 1528 1528 1528 1528 1528
1521 1521 1520 1520 1520 1520 1519 1519 1519 1519 1520 1521 1520 1520 1521 1521 1521 1520 1518 1520 1520 1521 1522 1523 1523 1523 1523 1524 1524 1525 1525 1525 1525
1514 1514 1514 1513 1513 1513 1513 1513 1513 1511 1512 1512 1513 1513 1514 1515 1515 1515 1514 1513 1515 1515 1516 1517 1518 1518 1519 1520 1520 1521 1521 1522 1522
1507 1506 1506 1507 1506 1505 1506 1506 1506 1506 1505 1505 1506 1506 1507 1507 1508 1508 1508 1507 1507 1509 1510 1511 1513 1513 1514 1515 1516 1516 1517 1517 1517
1500 1499 1499 1500 1500 1499 1499 1499 1499 1499 1499 1498 1498 1499 1499 1500 1501 1501 1501 1500 1500 1500 1502 1504 1506 1507 1509 1509 1510 1510 1511 1512 1512
1491 1491 1491 1492 1492 1491 1492 1491 1492 1492 1492 1492 1491 1491 1491 1492 1493 1493 1492 1492 1491 1491 1493 1496 1499 1500 1502 1503 1504 1504 1505 1505 1505
1482 1482 1483 1485 1485 1486 1486 1485 1485 1484 1484 1485 1484 1484 1484 1483 1483 1484 1483 1483 1478 1482 1484 1486 1489 1492 1495 1497 1497 1497 1499 1501 1500
1476 1476 1477 1478 1478 1480 1481 1481 1480 1478 1478 1479 1476 1475 1475 1475 1475 1476 1475 1472 1472 1465 1473 1477 1483 1484 1486 1487 1488 1491 1492 1495 1495
1473 1472 1473 1474 1473 1473 1474 1475 1474 1473 1473 1472 1472 1470 1470 1467 1467 1467 1468 1469 1470 1467 1471 1474 1475 1477 1479 1482 1479 1485 1489 1489 1488
1471 1471 1470 1470 1469 1469 1469 1470 1469 1468 1467 1467 1468 1466 1463 1462 1461 1460 1463 1464 1463 1465 1466 1467 1468 1471 1474 1476 1479 1481 1481 1482 1481
1470 1469 1468 1467 1466 1465 1465 1465 1464 1463 1461 1462 1461 1459 1459 1459 1456 1459 1457 1458 1459 1460 1461 1461 1462 1466 1470 1472 1474 1476 1476 1475 1474
1467 1466 1465 1464 1463 1462 1461 1460 1459 1458 1456 1456 1456 1454 1453 1455 1452 1454 1455 1452 1454 1455 1455 1457 1459 1462 1465 1467 1468 1470 1470 1470 1469